Search your local weather  

 

Hazardous Weather Conditions

No active alerts for CHICAGO, ILLINOIS

Current Conditions: CHICAGO, ILLINOIS

Overcast


39.0 F

Last Updated on Mar 31 2020, 8:52 pm CDT
Humidity: 79%
Wind Speed: N 5.8 mph
Barometer 30.06 in
Dewpoint: 33.1 F
Visibility: 10.00 mi
Precip: --
Heat Index: NA
Wind Chill: 35 F
Current conditions at:

Chicago / Wheeling, Pal-Waukee Airport, IL (KPWK)

Lat: 42.12083 Lon: -87.90472

Local Radar Image active severe weather and emergency alerts image image weather storm and storm spotter reports image weather observation monitoring service image
Local
Radar
Active
Alerts
Storm Reports Weather
Monitoring

5 Day Forecast for CHICAGO, ILLINOIS (60601)

Tuesday

Slight Chance of Rain Showers
High 40 °F
Tuesday
Night
Mostly Cloudy

Low 35 °F
Wednesday

Mostly Cloudy

High 45 °F
Wednesday
Night
Partly Cloudy

Low 36 °F
Thursday

Mostly Cloudy

High 53 °F
Thursday
Night
Mostly Cloudy

Low 43 °F
Friday

Slight Chance of Rain Showers
High 57 °F
Friday
Night
Chance of Rain
Low 45 °F
Saturday

Chance of Rain Showers
High 54 °F

Sign-up For Email & Text Message Weather Alert Notification Services


Advertise Here

Observation History for CHICAGO, ILLINOIS


Time Wind
(mph)
Vis
(mi)
Weather Precip (in) Temperature (F) Relative
Humidity
Wind
Chill
(F)
Heat
Index
(F)
Pressure
Air Dwpt altimeter
(in)
sea level
(mb)
8:52 pm CDT N 5.8 10.00 Overcast -- 39.0 33.1 79% 35 NA 30.06 1018.2
7:52 pm CDT N 9.2 10.00 Overcast -- 39.0 33.1 79% 33 NA 30.05 1018.0
6:52 pm CDT N 11.5 10.00 Overcast -- 39.0 33.1 79% 32 NA 30.05 1018.0
5:52 pm CDT N 10.4 10.00 Overcast -- 40.0 33.1 77% 33 NA 30.05 1018.0
4:52 pm CDT N 13.8 G 23.0 10.00 Overcast -- 40.0 34.0 79% 32 NA 30.04 1017.6
3:52 pm CDT NE 11.5 G 23.0 10.00 Overcast -- 41.0 34.0 76% 34 NA 30.02 1017.1
2:52 pm CDT NE 9.2 G 20.7 10.00 Overcast -- 41.0 34.0 76% 35 NA 30.03 1017.2
1:52 pm CDT NE 11.5 G 21.9 10.00 Overcast -- 41.0 33.1 73% 34 NA 30.03 1017.5
12:52 pm CDT N 11.5 10.00 Overcast -- 42.0 34.0 73% 36 NA 30.04 1017.7
11:52 am CDT N 9.2 10.00 Overcast -- 40.0 34.0 79% 34 NA 30.06 1018.2
10:52 am CDT NE 6.9 10.00 Overcast Trace 39.0 34.0 82% 34 NA 30.07 1018.6
9:52 am CDT NE 9.2 10.00 Overcast Trace 39.0 33.1 79% 33 NA 30.07 1018.7
8:52 am CDT N 10.4 10.00 Overcast -- 38.0 32.0 79% 31 NA 30.08 1019.0
7:52 am CDT N 5.8 10.00 Overcast -- 38.0 32.0 79% 34 NA 30.08 1019.1
6:52 am CDT N 9.2 10.00 Overcast -- 37.0 30.9 79% 30 NA 30.08 1019.2
5:52 am CDT N 8.1 10.00 Overcast -- 37.0 30.9 79% 31 NA 30.09 1019.3
4:52 am CDT N 5.8 10.00 Overcast -- 37.0 30.0 76% 32 NA 30.10 1019.7
3:52 am CDT N 9.2 10.00 Overcast -- 37.0 30.0 76% 30 NA 30.11 1020.1
2:52 am CDT N 10.4 G 19.6 10.00 Overcast -- 38.0 30.0 73% 31 NA 30.12 1020.3
1:52 am CDT N 6.9 10.00 Overcast -- 38.0 30.9 76% 33 NA 30.13 1020.7
12:52 am CDT N 6.9 10.00 Overcast -- 38.0 33.1 83% 33 NA 30.15 1021.3
11:52 pm CDT NE 8.1 10.00 Overcast -- 39.0 34.0 82% 33 NA 30.15 1021.5
10:52 pm CDT E 8.1 10.00 Overcast -- 40.0 32.0 73% 35 NA 30.17 1022.1
9:52 pm CDT NE 4.6 10.00 Overcast -- 40.0 32.0 73% 37 NA 30.17 1022.0

Regional Weather Observation

Chicago, Chicago-OHare International Airport, IL (KORD)

Overcast
39.0 F

Chicago/Waukegan Regional Airport, IL (KUGN)

Overcast
37.0 F

Chicago, Chicago Midway Airport, IL (KMDW)

Overcast
39.0 F

Kenosha, Kenosha Regional Airport, WI (KENW)

Overcast
38.0 F

Chicago / West Chicago, Dupage Airport, IL (KDPA)

Overcast
37.0 F

Racine, Batten International Airport, WI (KRAC)

Overcast
37.0 F

Advertise Here

Advertise Here